Glendale Luke AFB, AZ

11:42 PM MST on November 24, 2017 (GMT -0700)
Luke Air Force Base

Weather History for KLUF - October, 2012

Change the Weather History Date:

Friday, October 5, 2012

  Actual Average Record
Temperature  
Mean Temperature 78 °F -  
Max Temperature 93 °F 94 °F 105 °F (1917)
Min Temperature 63 °F 59 °F 42 °F (1969)
Cooling Degree Days 13    
Growing Degree Days 28 (Base 50)    
Moisture  
Dew Point 41 °F    
Average Humidity 28    
Maximum Humidity 43    
Minimum Humidity 10    
Precipitation  
Precipitation 0.00 in - - ()
Sea Level Pressure  
Sea Level Pressure 29.89 in    
Wind  
Wind Speed 4 mph (NNW)    
Max Wind Speed 8 mph    
Max Gust Speed -    
Visibility 10 miles    
Events      
Averages and records for this station are not official NWS values.
T = Trace of Precipitation, MM = Missing Value Source: NWS Daily Summary

Daily Weather History Graph

Daily Weather History Graph

Search for Another Location

Airport or City:

Trip Planner

Search our weather history database for the weather conditions in past years. The results will help you decide how hot, cold, wet, or windy it might be!

Date:

Astronomy

Oct. 05, 2012 Rise Set
Actual Time 6:27 AM MST 6:07 PM MST
Civil Twilight 6:02 AM MST 6:32 PM MST
Nautical Twilight 5:33 AM MST 7:01 PM MST
Astronomical Twilight 5:04 AM MST 7:30 PM MST
Moon 9:48 PM MST (10/5) 11:24 AM MST (10/5)
Length of Visible Light 12h 30m
Length of Day
11h 40m
Waning Gibbous, 73% of the Moon is Illuminated
Oct 5
Waning Gibbous
Oct 8
Last Quarter
Oct 15
New
Oct 21
First Quarter
Oct 29
Full

Hourly Weather History & Observations

Time (MST) Temp. Dew Point Humidity Pressure Visibility Wind Dir Wind Speed Gust Speed Precip Events Conditions
12:55 AM 72.0 °F 43.5 °F 36% 29.90 in 10.0 mi WNW 3.5 mph - N/A   Clear
1:55 AM 69.1 °F 44.2 °F 41% 29.90 in 9.0 mi NW 3.5 mph - N/A   Clear
2:55 AM 66.7 °F 41.9 °F 40% 29.91 in 10.0 mi NNW 6.9 mph - N/A   Clear
3:55 AM 65.3 °F 41.9 °F 42% 29.91 in 10.0 mi North 4.6 mph - N/A   Clear
4:55 AM 65.3 °F 38.1 °F 37% 29.92 in 10.0 mi NNW 4.6 mph - N/A   Clear
5:55 AM 63.7 °F 39.9 °F 42% 29.94 in 10.0 mi NNW 4.6 mph - N/A   Clear
6:55 AM 63.5 °F 40.8 °F 43% 29.95 in 10.0 mi NNW 5.8 mph - N/A   Clear
7:55 AM 72.1 °F 43.0 °F 35% 29.96 in 10.0 mi North 3.5 mph - N/A   Clear
8:55 AM 77.4 °F 44.4 °F 31% 29.98 in 10.0 mi ENE 3.5 mph - N/A   Clear
9:55 AM 81.0 °F 45.5 °F 29% 29.97 in 10.0 mi NE 4.6 mph - N/A   Clear
10:55 AM 84.9 °F 45.7 °F 25% 29.95 in 10.0 mi Calm Calm - N/A   Clear
11:55 AM 89.4 °F 43.7 °F 20% 29.93 in 10.0 mi ENE 3.5 mph - N/A   Clear
12:55 PM 90.7 °F 41.2 °F 18% 29.90 in 10.0 mi South 4.6 mph - N/A   Clear
1:55 PM 92.3 °F 37.2 °F 14% 29.86 in 10.0 mi Variable 3.5 mph - N/A   Clear
2:55 PM 93.4 °F 36.3 °F 13% 29.84 in 10.0 mi SW 4.6 mph - N/A   Clear
3:55 PM 93.9 °F 30.0 °F 10% 29.83 in 10.0 mi South 3.5 mph - N/A   Clear
4:55 PM 93.4 °F 36.3 °F 13% 29.82 in 10.0 mi SW 8.1 mph - N/A   Clear
5:55 PM 91.4 °F 38.5 °F 16% 29.82 in 10.0 mi WSW 4.6 mph - N/A   Clear
6:55 PM 85.5 °F 41.9 °F 22% 29.83 in 10.0 mi Calm Calm - N/A   Clear
7:55 PM 80.8 °F 43.7 °F 27% 29.83 in 10.0 mi NNW 3.5 mph - N/A   Clear
8:55 PM 78.3 °F 43.2 °F 29% 29.83 in 10.0 mi NW 4.6 mph - N/A   Clear
9:55 PM 76.1 °F 43.2 °F 31% 29.83 in 10.0 mi NNW 3.5 mph - N/A   Clear
10:55 PM 74.8 °F 44.2 °F 33% 29.82 in 10.0 mi North 4.6 mph - N/A   Clear
11:55 PM 75.0 °F 41.5 °F 30% 29.82 in 10.0 mi North 5.8 mph - N/A   Clear